[[{"header":{"parameterUnit":"m.s-1","parameterCategory":1,"la1":30.2992,"la2":30.254,"lo1":-89.0895,"lo2":-89.0443,"dy":0.0025,"dx":0.0025,"nx":19,"ny":19,"refTime":"2026-04-09T21:00:00:Z","depth":0,"parameterNumber":2,"parameterNumberName":"U-component_of_WINDS"},"data":[0,0,0,-7.3239,-7.3243,-7.3393,-7.3394,-7.3622,-7.3624,0,0,0,0,0,0,0,0,0,0,0,-7.3216,-7.3218,-7.3239,-7.3243,-7.3393,-7.3394,-7.3621,-7.3624,0,0,0,0,0,0,0,0,0,0,0,-7.3215,-7.3217,-7.322,-7.3244,-7.3393,-7.3394,-7.3621,-7.3495,0,0,0,0,0,0,0,0,0,0,-7.3343,-7.3341,-7.3217,-7.322,-7.3245,-7.3393,-7.3394,-7.3488,-7.3503,-7.3569,0,-7.3633,0,-7.3632,-7.3642,-7.3643,0,0,0,-7.3228,-7.3329,-7.3351,-7.3221,-7.3246,-7.3393,-7.3321,-7.3496,-7.3512,-7.3588,-7.3636,-7.3643,-7.3636,-7.3643,-7.3645,-7.4079,-7.4081,0,0,-7.3219,-7.3254,-7.334,-7.3363,-7.3341,-7.3316,-7.3326,-7.3505,-7.3559,-7.3636,-7.3648,-7.364,-7.3645,-7.3647,-7.4076,-7.4079,0,0,0,-7.3206,-7.3249,-7.3265,-7.3354,-7.3379,-7.3321,-7.3332,-7.3551,-7.3554,-7.365,-7.3643,-7.3647,-7.365,-7.4073,-7.4077,-7.4249,0,0,0,-7.32,-7.3241,-7.3262,-7.3285,-7.3376,-7.3467,-7.3375,-7.3541,-7.356,-7.3641,-7.3647,-7.3652,-7.407,-7.4075,-7.4237,-7.4324,0,0,0,-7.3199,-7.324,-7.3269,-7.3287,-7.3352,-7.3463,-7.3475,-7.3544,-7.3557,-7.3643,-7.3653,-7.4068,-7.4074,-7.4227,-7.4307,-7.445,0,0,0,-7.3207,-7.3418,-7.3273,-7.3506,-7.3352,-7.3567,-7.3473,-7.3632,-7.3726,-7.3648,-7.407,-7.4077,-7.4224,-7.4297,-7.4439,-7.4577,-7.4637,0,0,-7.3493,-7.3454,-7.3589,-7.3463,-7.3713,-7.3542,-7.3818,-7.387,-7.3847,-7.4003,-7.4013,-7.4241,-7.4306,-7.4448,-7.4961,-7.5009,0,0,0,-7.3691,-7.3789,-7.3847,-7.3939,-7.3985,-7.4032,-7.4039,-7.4059,-7.419,-7.3934,-7.4329,-7.4367,-7.4448,-7.4513,-7.4554,-7.4623,-7.4108,-7.4107,-7.4106,-7.4146,-7.4105,-7.4326,-7.4304,-7.4394,-7.44,-7.447,-7.4498,-7.4429,-7.4524,-7.457,-7.4887,-7.4963,-7.4994,-7.5066,-7.4638,-7.4639,-7.464,-7.464,-7.4563,-7.4695,-7.46,-7.4781,-7.4737,-7.4888,-7.4903,-7.485,-7.4985,-7.4847,-7.4917,-7.4772,-7.5048,-7.5109,-7.4653,-7.465,-7.4649,-7.4648,-7.4647,-7.4858,-7.4914,-7.4935,-7.5065,-7.5169,-7.5139,-7.5274,-7.5229,-7.5187,-7.5256,-7.5301,-7.5298,-7.5291,-7.5281,-7.5282,-7.5283,-7.5284,-7.5285,-7.5285,-7.5155,-7.5174,-7.5293,-7.5361,-7.5415,-7.548,-7.549,-7.5542,-7.5589,-7.5545,-7.5545,-7.5469,-7.5082,-7.4986,-7.5302,-7.5299,-7.5297,-7.5295,-7.5294,-7.5596,-7.5489,-7.5673,-7.5728,-7.5805,-7.5914,-7.5854,-7.5965,-7.6001,-7.607,-7.5979,-7.57,-7.5656,-7.5624,-7.5545,-7.5986,-7.5986,-7.5986,-7.5986,-7.5845,-7.5819,-7.5998,-7.6089,-7.6172,-7.6137,-7.6349,-7.636,-7.6354,-7.6375,-7.6304,-7.6195,-7.6163,-7.6139,-7.6095,-7.602,-7.6573,-7.6573,-7.6574,-7.6115,-7.6095,-7.6283,-7.6276,-7.6334,-7.6385,-7.6583,-7.6692,-7.6663,-7.6597,-7.639,-7.6366,-7.6189,-7.6133,-7.6062,-7.5995,-7.5857,0,0]},{"header":{"parameterUnit":"m.s-1","parameterCategory":1,"la1":30.2992,"la2":30.254,"lo1":-89.0895,"lo2":-89.0443,"dy":0.0025,"dx":0.0025,"nx":19,"ny":19,"refTime":"2026-04-09T21:00:00:Z","depth":0,"parameterNumber":3,"parameterNumberName":"V-component_of_WINDS"},"data":[0,0,0,-0.4616,-0.4618,-0.4669,-0.4669,-0.4739,-0.474,0,0,0,0,0,0,0,0,0,0,0,-0.4603,-0.4604,-0.4616,-0.4618,-0.4669,-0.4669,-0.4739,-0.474,0,0,0,0,0,0,0,0,0,0,0,-0.4603,-0.4604,-0.4604,-0.4618,-0.4669,-0.4669,-0.4739,-0.4699,0,0,0,0,0,0,0,0,0,0,-0.4648,-0.4638,-0.4603,-0.4604,-0.4618,-0.4669,-0.4669,-0.4697,-0.4701,-0.4717,0,-0.4732,0,-0.4737,-0.4745,-0.4745,0,0,0,-0.4616,-0.4634,-0.4646,-0.4604,-0.4619,-0.4669,-0.4646,-0.4699,-0.4704,-0.4723,-0.4733,-0.4735,-0.4738,-0.4745,-0.4746,-0.484,-0.4841,0,0,-0.4614,-0.4614,-0.4642,-0.4649,-0.4641,-0.4644,-0.4647,-0.4702,-0.4713,-0.4733,-0.4737,-0.4739,-0.4746,-0.4746,-0.484,-0.4841,0,0,0,-0.4606,-0.4612,-0.4622,-0.4647,-0.4655,-0.4645,-0.4649,-0.4711,-0.4714,-0.4738,-0.474,-0.4746,-0.4747,-0.4839,-0.484,-0.4865,0,0,0,-0.4604,-0.4608,-0.4621,-0.4622,-0.4655,-0.4684,-0.4656,-0.471,-0.4716,-0.474,-0.4746,-0.4748,-0.4839,-0.484,-0.4863,-0.4878,0,0,0,-0.4599,-0.4607,-0.4615,-0.4622,-0.4644,-0.4683,-0.4689,-0.4711,-0.4718,-0.4745,-0.4748,-0.4838,-0.484,-0.4862,-0.4875,-0.4903,0,0,0,-0.4594,-0.4638,-0.4615,-0.4665,-0.4644,-0.4697,-0.4689,-0.4729,-0.4755,-0.4747,-0.4839,-0.484,-0.4861,-0.4873,-0.4901,-0.4927,-0.4937,0,0,-0.4649,-0.4644,-0.4673,-0.4655,-0.4713,-0.4689,-0.4751,-0.4775,-0.4778,-0.4819,-0.4822,-0.4864,-0.4875,-0.4902,-0.4995,-0.5003,0,0,0,-0.4691,-0.4712,-0.4727,-0.4752,-0.477,-0.4787,-0.4802,-0.481,-0.4845,-0.4799,-0.4881,-0.4887,-0.4904,-0.4916,-0.4923,-0.4937,-0.4846,-0.4845,-0.4845,-0.4772,-0.4771,-0.4819,-0.4824,-0.4848,-0.4861,-0.488,-0.4894,-0.4888,-0.4907,-0.492,-0.4976,-0.499,-0.4996,-0.501,-0.4933,-0.4933,-0.4933,-0.4933,-0.4854,-0.4883,-0.4871,-0.4914,-0.4913,-0.4948,-0.4962,-0.4956,-0.4989,-0.4967,-0.4981,-0.4958,-0.5005,-0.5018,-0.4935,-0.4935,-0.4934,-0.4934,-0.4934,-0.4907,-0.4921,-0.493,-0.4964,-0.499,-0.4993,-0.5025,-0.5023,-0.5021,-0.5035,-0.5049,-0.5048,-0.5048,-0.5041,-0.5041,-0.5042,-0.5042,-0.5042,-0.5042,-0.496,-0.4969,-0.4996,-0.5017,-0.5031,-0.505,-0.5062,-0.5076,-0.5092,-0.5088,-0.5088,-0.508,-0.5009,-0.4992,-0.5045,-0.5045,-0.5044,-0.5044,-0.5044,-0.5046,-0.5025,-0.5067,-0.5081,-0.5105,-0.5131,-0.5126,-0.5155,-0.5167,-0.5182,-0.517,-0.5118,-0.5113,-0.5108,-0.5093,-0.517,-0.517,-0.517,-0.517,-0.5092,-0.5088,-0.5129,-0.5152,-0.5174,-0.5173,-0.522,-0.5229,-0.5235,-0.5242,-0.523,-0.5211,-0.5205,-0.5204,-0.5196,-0.5183,-0.528,-0.528,-0.528,-0.5144,-0.5142,-0.5183,-0.5187,-0.5205,-0.5221,-0.5264,-0.5291,-0.5294,-0.5285,-0.5247,-0.5243,-0.5211,-0.5201,-0.5193,-0.5181,-0.5157,0,0]}]]